Weather Roundup
Issued by NWS

Home | Current Version | Previous Version | Graphics & Text | Print | Product List | Glossary Off
Versions: 1 2 3 4 5 6 7 8 9 10 11 12 13 14 15 16 17 18 19 20 21 22 23 24 25 26 27 28 29 30 31 32 33 34 35 36 37 38 39 40 41 42 43 44 45 46 47 48 49 50

777
NZUS93 KARX 182159
HRRWXR

CURRENT HOURLY OBSERVATIONS ACROSS
MUCH OF THE UPPER MISSISSIPPI VALLEY
NATIONAL WEATHER SERVICE LA CROSSE WI
400 PM CST WED JAN 18 2017


...SOUTHEAST MINNESOTA...


CITY           SKY/WX    TMP DP  RH WIND       PRES   REMARKS
ROCHESTER      CLEAR     33  31  92 S9        29.91R WCI  25
ROCHESTER/MAYO FAIR      36  34  93 S7        29.91S WCI  30
WINONA         CLEAR     36  32  87 S5        29.95R WCI  32
AUSTIN         CLEAR     34  30  86 S9        29.90S WCI  26
ALBERT LEA     CLEAR     39  36  87 S9G16     29.89R WCI  33
DODGE CENTER   CLEAR     34  32  93 S9        29.89S FOG     WCI  26
PRESTON        CLOUDY    31  30  94 S15       29.92R FOG     WCI  20
OWATONNA       CLEAR     37  32  81 S7        29.89R WCI  32
FARIBAULT      CLEAR     37  34  87 S10       29.88S WCI  30
$$

...ELSEWHERE IN MINNESOTA...


CITY           SKY/WX    TMP DP  RH WIND       PRES   REMARKS
MINNEAPOLIS    CLEAR     41  31  67 SW9       29.86S
INTNL FALLS    CLOUDY    38  24  57 S3        29.72R
DULUTH         CLOUDY    39  27  62 SW7       29.78R WCI  34
RED WING       CLEAR     39  30  70 S7        29.89S WCI  34
REDWOOD FALLS  CLEAR     39  33  79 S10       29.81S WCI  32
MANKATO        CLEAR     39  34  82 S8        29.87S WCI  33
WORTHINGTON    SUNNY     41  37  86 S12       29.83R
FAIRMONT       CLEAR     39  36  89 S10       29.87R WCI  32
$$

...SOUTHWEST WISCONSIN...


CITY           SKY/WX    TMP DP  RH WIND       PRES   REMARKS
LA CROSSE      CLEAR     37  31  78 S10       29.95S WCI  30
PRAIRIE DU CHI CLOUDY    35  30  82 S7        30.00F HAZE    WCI  29
BOSCOBEL       PTCLDY    36  31  82 SW9       30.00F WCI  29
LONE ROCK      PTCLDY    35  30  82 S8        30.00S HAZE    WCI  29
PLATTEVILLE    CLOUDY    35  34  96 SW12      30.01S WCI  27
FORT MC COY    CLEAR     38  31  77 S7        29.95S WCI  33
MAUSTON-NEW LI CLEAR     39  31  73 SW3       29.95R HAZE
VIROQUA        FAIR      34  32  93 SW9       29.95R WCI  26
WIS DELLS      CLEAR     37  31  78 SW7       29.96R WCI  31
$$

...ELSEWHERE IN WISCONSIN...


CITY           SKY/WX    TMP DP  RH WIND       PRES   REMARKS
MILWAUKEE      CLOUDY    36  31  82 SW13      30.01F WCI  27
MADISON        PTCLDY    34  30  85 S12       30.00S WCI  25
GREEN BAY      CLEAR     37  33  85 S12       29.91S WCI  29
EAU CLAIRE     CLEAR     38  31  76 S9        29.88F WCI  31
BLACK RVR FLS  FAIR      39  29  68 SW8       29.93S WCI  33
MEDFORD        CLEAR     36  30  77 S9        29.86S WCI  29
WAUSAU         CLEAR     39  31  72 SW8       29.86F WCI  33
WIS RAPIDS     CLEAR     40  30  67 SW13      29.92R WCI  32
MARSHFIELD     CLEAR     39  29  67 W12       29.88S WCI  32
RICE LAKE      CLEAR     39  30  70 S7        29.87S WCI  34
$$

...NORTHEAST IOWA...


CITY           SKY/WX    TMP DP  RH WIND       PRES   REMARKS
WATERLOO       CLEAR     37  33  85 S13       29.97S WCI  29
DUBUQUE        CLOUDY    33  31  92 SW8       30.01S FOG     WCI  26
DECORAH        CLOUDY    32  30  93 VRB7G14   29.95R FOG     WCI  26
MASON CITY     CLEAR     35  32  88 S13       29.92S WCI  26
CHARLES CITY   PTCLDY    34  34 100 S12       29.95S WCI  25
OELWEIN        FOG       32  32 100 S14       29.98R VSB 1   WCI  22
$$

...ELSEWHERE IN IOWA...


CITY           SKY/WX    TMP DP  RH WIND       PRES   REMARKS
DES MOINES     MOSUNNY   45  36  70 S14       29.98R
IOWA CITY      PTCLDY    42  36  79 S7        30.04S
FORT DODGE     SUNNY     45  37  76 S10       29.92S
MARSHALLTOWN   CLEAR     42  37  82 S12       29.96S
CEDAR RAPIDS   PTCLDY    38  35  89 S12       30.00S FOG     WCI  30
$$

...NORTHERN ILLINOIS...


CITY           SKY/WX    TMP DP  RH WIND       PRES   REMARKS
CHICAGO-OHARE  CLOUDY    36  32  85 SW8       30.05S WCI  30
CHICAGO-MIDWAY MOCLDY    36  31  82 SW7       30.06S WCI  30
MOLINE         CLEAR     42  35  76 S3        30.04S
ROCKFORD       CLOUDY    37  32  82 SW8       30.06R WCI  31
PEORIA         CLEAR     39  34  82 SW3       30.07F
$$

NOTE: "FAIR" INDICATES FEW OR NO CLOUDS BELOW 12,000 FEET WITH NO
SIGNIFICANT WEATHER AND/OR OBSTRUCTIONS TO VISIBILITY. WIND
SPEEDS ARE IN MILES-PER-HOUR.




USA.gov is the U.S. government's official web portal to all federal, state and local government web resources and services.